Weather History for KPHN - January, 2013

Change the Weather History Date:

Sunday, January 6, 2013

  Actual Average Record
Temperature  
Mean Temperature 34 °F -  
Max Temperature 37 °F - - ()
Min Temperature 32 °F - - ()
Degree Days  
Heating Degree Days 30    
Moisture  
Dew Point 31 °F    
Average Humidity 88    
Maximum Humidity 100    
Minimum Humidity 75    
Precipitation  
Precipitation 0.00 in - - ()
Sea Level Pressure  
Sea Level Pressure 29.98 in    
Wind  
Wind Speed 7 mph (WSW)    
Max Wind Speed 12 mph    
Max Gust Speed 18 mph    
Visibility 6 miles    
Events Rain , Snow    
T = Trace of Precipitation, MM = Missing Value Source: NWS Daily Summary

Daily Weather History Graph

Daily Weather History Graph

Search for Another Location

Airport or City:

Trip Planner

Search our weather history database for the weather conditions in past years. The results will help you decide how hot, cold, wet, or windy it might be!

Date:

Astronomy

Jan. 06, 2013 Rise Set
Actual Time 8:01 AM EST 5:11 PM EST
Civil Twilight 7:29 AM EST 5:43 PM EST
Nautical Twilight 6:53 AM EST 6:18 PM EST
Astronomical Twilight 6:19 AM EST 6:53 PM EST
Moon 2:10 AM EST (1/6) 12:40 PM EST (1/6)
Length of Visible Light 10h 14m
Length of Day
9h 10m
Waning Crescent, 33% of the Moon is Illuminated
Jan 6
Waning Crescent
Jan 11
New
Jan 18
First Quarter
Jan 26
Full
Feb 3
Last Quarter

Hourly Weather History & Observations

Time (EST) Temp. Windchill Dew Point Humidity Pressure Visibility Wind Dir Wind Speed Gust Speed Precip Events Conditions
12:17 AM 32.0 °F 25.6 °F 30.2 °F 93% 30.00 in 2.0 mi SSW 6.9 mph - N/A Snow Light Snow
12:37 AM 32.0 °F 26.4 °F 32.0 °F 100% 30.00 in 2.5 mi SSW 5.8 mph - N/A Snow Light Snow
12:57 AM 32.0 °F 24.8 °F 32.0 °F 100% 29.98 in 2.5 mi SSW 8.1 mph - N/A Snow Light Snow
1:18 AM 33.8 °F 27.7 °F 32.0 °F 93% 29.97 in 2.5 mi SSW 6.9 mph - N/A Snow Light Snow
1:37 AM 33.8 °F 27.0 °F 32.0 °F 93% 29.97 in 4.0 mi SSW 8.1 mph - N/A   Overcast
1:57 AM 33.8 °F 26.4 °F 32.0 °F 93% 29.97 in 3.0 mi SSW 9.2 mph - N/A Snow Light Snow
2:17 AM 33.8 °F 27.0 °F 32.0 °F 93% 29.96 in 3.0 mi SSW 8.1 mph 17.3 mph N/A Snow Light Snow
2:37 AM 33.8 °F 27.0 °F 32.0 °F 93% 29.95 in 5.0 mi SSW 8.1 mph - N/A   Overcast
2:57 AM 33.8 °F 27.0 °F 32.0 °F 93% 29.95 in 5.0 mi SSW 8.1 mph - N/A   Overcast
3:17 AM 33.8 °F 27.7 °F 32.0 °F 93% 29.94 in 5.0 mi SW 6.9 mph - N/A   Overcast
3:37 AM 33.8 °F 26.4 °F 32.0 °F 93% 29.94 in 7.0 mi SSW 9.2 mph - N/A   Overcast
3:57 AM 33.8 °F 26.4 °F 32.0 °F 93% 29.93 in 7.0 mi SSW 9.2 mph - N/A   Overcast
4:17 AM 33.8 °F 27.0 °F 32.0 °F 93% 29.92 in 10.0 mi SSW 8.1 mph - N/A   Overcast
4:37 AM 35.6 °F 28.6 °F 32.0 °F 87% 29.92 in 10.0 mi SW 9.2 mph - N/A   Overcast
4:57 AM 35.6 °F 29.9 °F 32.0 °F 87% 29.91 in 10.0 mi SW 6.9 mph - N/A   Overcast
5:17 AM 35.6 °F 29.9 °F 32.0 °F 87% 29.91 in 5.0 mi SSW 6.9 mph - N/A Snow Light Snow
5:37 AM 33.8 °F 27.7 °F 32.0 °F 93% 29.90 in 4.0 mi SSW 6.9 mph - N/A Snow Light Snow
5:57 AM 33.8 °F 26.4 °F 32.0 °F 93% 29.90 in 7.0 mi SSW 9.2 mph - N/A Snow Light Snow
6:17 AM 33.8 °F 26.4 °F 32.0 °F 93% 29.90 in 7.0 mi SSW 9.2 mph - N/A   Overcast
6:37 AM 33.8 °F 27.0 °F 32.0 °F 93% 29.90 in 7.0 mi SSW 8.1 mph - N/A   Overcast
6:57 AM 33.8 °F 26.4 °F 32.0 °F 93% 29.91 in 7.0 mi SSW 9.2 mph - N/A   Overcast
7:17 AM 33.8 °F 27.0 °F 32.0 °F 93% 29.90 in 2.5 mi SSW 8.1 mph - N/A Snow Light Snow
7:37 AM 33.8 °F 27.0 °F 32.0 °F 93% 29.90 in 2.0 mi SSW 8.1 mph - N/A Snow Light Snow
8:17 AM 33.8 °F 27.7 °F 32.0 °F 93% 29.90 in 4.0 mi SSW 6.9 mph - N/A   Overcast
8:37 AM 33.8 °F 26.4 °F 32.0 °F 93% 29.90 in 4.0 mi SSW 9.2 mph - N/A   Overcast
8:57 AM 33.8 °F 27.7 °F 32.0 °F 93% 29.90 in 5.0 mi SSW 6.9 mph - N/A   Overcast
9:17 AM 33.8 °F 26.4 °F 32.0 °F 93% 29.90 in 5.0 mi SSW 9.2 mph - N/A   Overcast
9:37 AM 33.8 °F 26.4 °F 32.0 °F 93% 29.90 in 5.0 mi SSW 9.2 mph - N/A   Overcast
9:57 AM 35.6 °F 29.9 °F 32.0 °F 87% 29.91 in 5.0 mi SSW 6.9 mph - N/A   Overcast
10:17 AM 35.6 °F 28.6 °F 32.0 °F 87% 29.91 in 5.0 mi SSW 9.2 mph - N/A   Overcast
10:37 AM 35.6 °F 29.9 °F 32.0 °F 87% 29.92 in 5.0 mi SSW 6.9 mph - N/A Snow Light Snow
10:57 AM 35.6 °F 28.6 °F 32.0 °F 87% 29.92 in 5.0 mi SSW 9.2 mph - N/A   Overcast
11:17 AM 35.6 °F 30.7 °F 32.0 °F 87% 29.91 in 5.0 mi SSW 5.8 mph - N/A   Overcast
11:37 AM 35.6 °F 29.2 °F 32.0 °F 87% 29.91 in 7.0 mi SSW 8.1 mph - N/A   Overcast
11:58 AM 35.6 °F 29.2 °F 32.0 °F 87% 29.90 in 7.0 mi SSW 8.1 mph - N/A   Overcast
12:17 PM 35.6 °F 29.9 °F 32.0 °F 87% 29.89 in 5.0 mi SSW 6.9 mph - N/A   Haze
12:37 PM 35.6 °F 29.9 °F 32.0 °F 87% 29.89 in 4.0 mi SSW 6.9 mph - N/A Snow Light Snow
12:57 PM 35.6 °F 29.2 °F 32.0 °F 87% 29.89 in 5.0 mi SSW 8.1 mph - N/A Snow Light Snow
1:17 PM 35.6 °F 29.9 °F 32.0 °F 87% 29.89 in 4.0 mi SSW 6.9 mph - N/A Snow Light Snow
1:37 PM 35.6 °F 30.7 °F 32.0 °F 87% 29.89 in 4.0 mi SW 5.8 mph - N/A Snow Light Snow
1:57 PM 35.6 °F 31.7 °F 33.8 °F 93% 29.89 in 4.0 mi SW 4.6 mph - N/A Rain Light Rain
2:17 PM 37.4 °F 32.8 °F 33.8 °F 87% 29.89 in 5.0 mi SW 5.8 mph - N/A Rain Light Rain
2:37 PM 37.4 °F 32.8 °F 33.8 °F 87% 29.90 in 5.0 mi SW 5.8 mph - N/A   Light Drizzle
2:57 PM 37.4 °F 33.8 °F 33.8 °F 87% 29.91 in 5.0 mi WSW 4.6 mph - N/A Rain Rain
3:17 PM 37.4 °F 33.8 °F 33.8 °F 87% 29.92 in 5.0 mi WSW 4.6 mph - N/A   Light Drizzle
3:37 PM 37.4 °F 33.8 °F 33.8 °F 87% 29.93 in 3.0 mi West 4.6 mph - N/A Rain Light Rain
3:57 PM 35.6 °F 31.7 °F 33.8 °F 93% 29.94 in 3.0 mi West 4.6 mph - N/A Snow Light Snow
4:17 PM 35.6 °F 29.9 °F 32.0 °F 87% 29.96 in 5.0 mi WNW 6.9 mph - N/A Snow Light Snow
4:37 PM 35.6 °F 28.0 °F 32.0 °F 87% 29.97 in 7.0 mi WNW 10.4 mph - N/A   Overcast
4:57 PM 35.6 °F 29.2 °F 30.2 °F 81% 29.99 in 10.0 mi WNW 8.1 mph - N/A   Overcast
5:17 PM 35.6 °F 30.7 °F 30.2 °F 81% 30.00 in 10.0 mi West 5.8 mph - N/A   Overcast
5:37 PM 35.6 °F 29.9 °F 30.2 °F 81% 30.01 in 10.0 mi WNW 6.9 mph - N/A   Overcast
5:57 PM 35.6 °F 29.9 °F 30.2 °F 81% 30.03 in 10.0 mi West 6.9 mph - N/A   Overcast
6:17 PM 35.6 °F 29.9 °F 30.2 °F 81% 30.04 in 10.0 mi WNW 6.9 mph - N/A   Overcast
6:37 PM 35.6 °F 28.0 °F 28.4 °F 75% 30.05 in 10.0 mi WNW 10.4 mph - N/A   Overcast
6:57 PM 33.8 °F 25.3 °F 28.4 °F 81% 30.08 in 10.0 mi WNW 11.5 mph 16.1 mph N/A   Overcast
7:17 PM 33.8 °F 27.0 °F 30.2 °F 87% 30.09 in 5.0 mi WNW 8.1 mph - N/A   Overcast
7:37 PM 33.8 °F 28.6 °F 30.2 °F 87% 30.10 in 7.0 mi West 5.8 mph - N/A   Overcast
7:57 PM 33.8 °F 28.6 °F 30.2 °F 87% 30.11 in 7.0 mi WNW 5.8 mph - N/A   Overcast
8:17 PM 33.8 °F 27.0 °F 30.2 °F 87% 30.12 in 7.0 mi WNW 8.1 mph - N/A   Overcast
8:37 PM 33.8 °F 27.7 °F 30.2 °F 87% 30.13 in 7.0 mi WNW 6.9 mph - N/A   Overcast
8:57 PM 33.8 °F 28.6 °F 30.2 °F 87% 30.14 in 5.0 mi NW 5.8 mph - N/A   Overcast
9:17 PM 33.8 °F 28.6 °F 30.2 °F 87% 30.15 in 7.0 mi NW 5.8 mph - N/A   Overcast
9:37 PM 33.8 °F 27.7 °F 30.2 °F 87% 30.16 in 7.0 mi NNW 6.9 mph - N/A   Overcast
9:57 PM 33.8 °F 25.8 °F 28.4 °F 81% 30.17 in 10.0 mi NW 10.4 mph - N/A   Overcast
10:17 PM 33.8 °F 27.0 °F 28.4 °F 81% 30.18 in 10.0 mi NW 8.1 mph 18.4 mph N/A   Overcast
10:37 PM 33.8 °F 27.0 °F 28.4 °F 81% 30.19 in 10.0 mi NNW 8.1 mph 16.1 mph N/A   Overcast
10:57 PM 32.0 °F 24.2 °F 28.4 °F 87% 30.20 in 10.0 mi NNW 9.2 mph - N/A   Overcast
11:17 PM 32.0 °F 27.5 °F 26.6 °F 80% 30.21 in 10.0 mi NNW 4.6 mph - N/A   Overcast
11:37 PM 32.0 °F 26.4 °F 26.6 °F 80% 30.22 in 10.0 mi NW 5.8 mph - N/A   Overcast
11:57 PM 32.0 °F 26.4 °F 26.6 °F 80% 30.24 in 10.0 mi NW 5.8 mph - N/A   Overcast